Santa Cruz Airport
SBSC : now visible

Airfield :











YOU CAN JOIN US ON...

 
LOGIN :

Register | Disclaimer

   EN    FR    IT 

 









Legend :    VFR   Marginal VFR   IFR   Intensive IFR   Very Intensive IFR
Visi :
Ceiling :
>= 8 km
>= 3000ft
5 to 8 km
1000 to 3000 ft
1500m to 5 km
500 to 1000 ft
800 to 1500m
200 to 500 ft
< 800m
< 200 ft
Symbols :   Thunderstorms  Fog  Heavy snow  Heavy precipitations  Wind > 20 kt






- Airport Elevation : 10 ft
- IATA code : SNZ


SBSC - Santa Cruz

CURRENT METAR :
  • 231500Z 18007KT 9999 FEW040 BKN060 26/19 Q1020

EXPIRED METARs :
  • 231400Z 21004KT 9999 FEW021 BKN032 25/17 Q1020
  • 231300Z 27003KT 9999 FEW020 BKN060 25/17 Q1021

TAF TAF SBSC
Valid from the 23 at 12:00 until the 24 at 00:00 UTC


230900Z 2312/2324 12008KT 9999 SCT020 BKN030 TX27/2318Z TN23/2324Z
PROB30 2318/2320 6000 RA BKN020 RMK PDJ
SBCW FIR / South America



MET'MAP, your aeronautical weather chart ! - Copyright ORBIFLY December 2007 - Disclaimer

ORBIFLY MET'MAP TEAM :

Programming & Development : Alexandra Zaïnal
Concept & original design : Baudouin d'Aumeries
Assistance for programming : Marc-Olivier Méhu
Technical & hardware support : Manuel Goepfert

Contact : metmap@orbifly.com




SOURCES & CREDITS :

   NOAA       Earth
Advisory